071  
ASUS45 KPSR 191810  
RWRAZ  
 
ARIZONA HOURLY REGIONAL WEATHER ROUNDUP  
NATIONAL WEATHER SERVICE PHOENIX AZ  
1100 AM MST TUE SEP 19 2017  
 
NOTE: FAIR INDICATES FEW OR NO CLOUDS BELOW 12,000 FEET WITH NO  
SIGNIFICANT WEATHER AND/OR S TO VISIBILITY
.  
 
AZZ001>003-036-191900-  
NORTHWEST ARIZONA  
 
CITY SKY/WX TMP DP RH WIND PRES REMARKS
 
BULLHEAD CITY SUNNY 90 43 19 S21G28 29.77F  
KINGMAN SUNNY 80 41 24 S20G29 29.93F  
6HR MIN TEMP: 67; 6HR MAX TEMP: 81;  
 

 
 
AZZ004>008-015-016-018-191900-  
NORTH CENTRAL ARIZONA  
 
CITY SKY/WX TMP DP RH WIND PRES REMARKS
 
GRAND CANYON SUNNY 67 32 27 SW21G31 30.10F  
6HR MIN TEMP: 49; 6HR MAX TEMP: 67;  
 
WILLIAMS SUNNY 66 30 26 S18G30 30.13S  
PRESCOTT SUNNY 74 18 12 SW15G25 30.07R  
6HR MIN TEMP: 50; 6HR MAX TEMP: 74;  
 
FLAGSTAFF MOSUNNY 64 22 20 SW28G39 30.15S  
6HR MIN TEMP: 48; 6HR MAX TEMP: 64;  
 
PAYSON N/A 73 32 21 S9 30.11F  
PAGE SUNNY 77 34 21 SW12G21 29.89F  
6HR MIN TEMP: 61; 6HR MAX TEMP: 78;  
 

 
 
AZZ009>014-017-191900-  
NORTHEAST ARIZONA  
 
CITY SKY/WX TMP DP RH WIND PRES REMARKS
 
WINSLOW SUNNY 81 20 10 SW23G31 30.03F  
6HR MIN TEMP: 45; 6HR MAX TEMP: 81;  
 
SAINT JOHNS SUNNY 78 29 16 SW21G31 30.07F  
6HR MIN TEMP: 44; 6HR MAX TEMP: 78;  
 
WINDOW ROCK SUNNY 72 17 12 SW22G35 30.12F  
6HR MIN TEMP: 39; 6HR MAX TEMP: 72;  
 
SHOW LOW SUNNY 70 34 26 S30G37 30.14F  

 
 
AZZ540-542>544-546-548-191900-  
GREATER PHOENIX AREA  
 
CITY SKY/WX TMP DP RH WIND PRES REMARKS
 
PHOENIX MOSUNNY 90 51 26 S8 29.86F  
6HR MIN TEMP: 71; 6HR MAX TEMP: 91;  
 
BUCKEYE SUNNY 86 45 23 S7 29.87F  
GLENDALE MOSUNNY 90 45 20 VRB3 29.89F  
LUKE AFB MOSUNNY 88 46 22 SW7 29.86F  
6HR MIN TEMP: 64; 6HR MAX TEMP: 88;  
 
DEER VALLEY SUNNY 87 37 17 VRB6G21 29.88F  
6HR MIN TEMP: 67; 6HR MAX TEMP: 90;  
 
SCOTTSDALE SUNNY 88 49 25 S10G16 29.91F  
6HR MIN TEMP: 70; 6HR MAX TEMP: 88;  
 
MESA-FALCON SUNNY 90 54 29 S14G21 29.89F  
MESA-GATEWAY MOSUNNY 88 57 35 SW15G22 29.90F  
CHANDLER MOSUNNY 90 54 29 SW10 29.88F  

 
 
AZZ539-553-191900-  
SOUTHWEST MARICOPA COUNTY AND PINAL COUNTY  
 
CITY SKY/WX TMP DP RH WIND PRES REMARKS
 
CASA GRANDE NOT AVBL  
GILA BEND SUNNY 93 45 19 SW16G23 29.83F  
6HR MIN TEMP: 66; 6HR MAX TEMP: 93;  
 

 
 
AZZ503-504-507>509-191900-  
SOUTHEAST ARIZONA  
 
CITY SKY/WX TMP DP RH WIND PRES REMARKS
 
TUCSON PTSUNNY 92 58 31 SW15G24 29.98F  
6HR MIN TEMP: 74; 6HR MAX TEMP: 92;  
 
DAVIS-MONTHAN MOSUNNY 90 56 31 W12 29.97F  
6HR MIN TEMP: 71; 6HR MAX TEMP: 90;  
 
NOGALES MOSUNNY 82 59 45 SW15 30.07F  
6HR MIN TEMP: 64; 6HR MAX TEMP: 86;  
 
SIERRA VISTA SUNNY 83 53 36 SW16G24 30.12F  
6HR MIN TEMP: 63; 6HR MAX TEMP: 84;  
 
DOUGLAS MOSUNNY 85 56 37 SW15G23 30.08F  
6HR MIN TEMP: 63; 6HR MAX TEMP: 86;  
 
SAFFORD SUNNY 88 47 24 NE5 29.98F  
6HR MIN TEMP: 61; 6HR MAX TEMP: 88;  
 

 
 
AZZ532-191900-  
SOUTHWEST ARIZONA  
 
CITY SKY/WX TMP DP RH WIND PRES REMARKS
 
YUMA SUNNY 88 61 40 SW5 29.80F  
6HR MIN TEMP: 76; 6HR MAX TEMP: 88;  
 

 
 
CAZ041-043-047-048-061-525>527-560>570-191900-  
SOUTHERN CALIFORNIA  
 
CITY SKY/WX TMP DP RH WIND PRES REMARKS
 
DOWNTOWN L.A. CLOUDY 73 59 61 CALM 29.94S  
6HR MIN TEMP: 68; 6HR MAX TEMP: 73;  
 
L.A. AIRPORT CLOUDY 70 61 73 W8 29.95S  
6HR MIN TEMP: 67; 6HR MAX TEMP: 71;  
 
SAN DIEGO MOSUNNY 71 59 65 SW8 29.97S  
6HR MIN TEMP: 69; 6HR MAX TEMP: 71;  
 
BURBANK CLOUDY 69 57 65 S9 29.95S  
6HR MIN TEMP: 65; 6HR MAX TEMP: 69;  
 
ONTARIO PTSUNNY 71 55 56 SW8 29.95F  
6HR MIN TEMP: 65; 6HR MAX TEMP: 72;  
 
RIVERSIDE CLOUDY 71 57 61 CALM 29.95F  
6HR MIN TEMP: 65; 6HR MAX TEMP: 71;  
 
PALM SPRINGS SUNNY 86 52 30 NW12G18 29.82S  
6HR MIN TEMP: 69; 6HR MAX TEMP: 86;  
 
EL CENTRO NAS SUNNY 91 34 13 S9 29.80F  
6HR MIN TEMP: 69; 6HR MAX TEMP: 91;  
 
IMPERIAL SUNNY 89 47 23 S7 29.78F  
6HR MIN TEMP: 69; 6HR MAX TEMP: 90;  
 
BLYTHE SUNNY 89 43 20 S13 29.81F  
6HR MIN TEMP: 72; 6HR MAX TEMP: 89;  
 
NEEDLES SUNNY 92 45 19 SW18 29.79F  
6HR MIN TEMP: 78; 6HR MAX TEMP: 92;  
 

 
 
NVZ020-UTZ003-191900-  
SOUTHERN NEVADA-UTAH  
 
CITY SKY/WX TMP DP RH WIND PRES REMARKS
 
LAS VEGAS MOSUNNY 81 42 25 S8G21 29.81S  
6HR MIN TEMP: 75; 6HR MAX TEMP: 82;  
 
SALT LAKE CITY CLOUDY 54 44 69 CALM 29.94R  
6HR MIN TEMP: 49; 6HR MAX TEMP: 57; 6HR PCP: 0.11;  
 

 
 
NMZ009-TXZ055-191900-  
NEW MEXICO-WEST TEXAS  
 
CITY SKY/WX TMP DP RH WIND PRES REMARKS
 
ALBUQUERQUE MOSUNNY 76 35 22 SW10 30.05F  
6HR MIN TEMP: 55; 6HR MAX TEMP: 76;  
 
EL PASO MOSUNNY 89 52 28 SW15G21 30.03F  
6HR MIN TEMP: 73; 6HR MAX TEMP: 89;  
 

 
 
   
.......................KEY.....................
 
 
SKY/WX - SKY CONDITION/WEATHER  
TMP - TEMPERATURE IN FAHRENHEIT  
DP - DEW POINT IN FAHRENHEIT  
RH - RELATIVE HUMIDITY IN PERCENT  
WIND - DIRECTION AND SPEED IN MILES PER HOUR (MPH)  
VRB - VARIABLE WIND DIRECTION  
PRES - MEAN SEA LEVEL PRESSURE IN INCHES OF MERCURY  
F - FALLING PRESSURE R - RISING PRESSURE  
S - STEADY PRESSURE  
VSB - VISIBILITY IN MILES  
HX - HEAT INDEX IN FAHRENHEIT  
WCI - WIND CHILL INDEX IN FAHRENHEIT  
TC - TEMPERATURE IN CELSIUS WHICH IS ALSO KNOWN AS  
TEMPERATURE IN CENTIGRADE  
AFB - AIR FORCE BASE  
LUKE AFB IS LUKE AIR FORCE BASE  
DAVIS-MONTHAN IS DAVIS-MONTHAN AIR FORCE BASE  
NAS - NAVAL AIR STATION  
EL CENTRO NAS IS EL CENTRO NAVAL AIR STATION  
N/A - NOT AVAILABLE  
 
 
 
CLICK HERE TO GO TO PREVIOUS BULLETINS.

The Nexlab AZ Page Main Text Page